Location: Bismarck
(46.7731°N, 100.8200°W)
Time: 14:02:26
(UTC-06:00)

ISS - Pass Details

Date: 26 November 2017
Orbit: 402 x 407 km, 51.6° (Epoch: 13 December)

Event Time Altitude Azimuth Distance (km) Brightness Sun altitude
Rises 19:03:51 0° 206° (SSW) 2,317 0.5 -20.8°
Reaches altitude 10° 19:06:14 10° 190° (S) 1,460 -0.8 -21.2°
Enters shadow 19:07:05 15° 178° (S) 1,211 -1.4 -21.3°
Maximum altitude 19:08:46 21° 139° (SE) 974 - -21.6°
Drops below altitude 10° 19:11:20 10° 87° (E) 1,466 - -22.0°
Sets 19:13:43 0° 71° (ENE) 2,329 - -22.4°
